Date,TemperatureHighF,TemperatureAvgF,TemperatureLowF,DewpointHighF,DewpointAvgF,DewpointLowF,HumidityHigh,HumidityAvg,HumidityLow,PressureMaxIn,PressureMinIn,WindSpeedMaxMPH,WindSpeedAvgMPH,GustSpeedMaxMPH,PrecipitationSumIn
2013-1-1,18,3,-14,12,-5,-22,76,70,61,30.22,29.71,6,0,6,0.00
2013-1-2,22,19,16,15,13,10,80,77,71,29.75,29.64,8,1,9,0.00
2013-1-3,22,16,10,17,9,2,81,73,62,29.91,29.70,13,2,16,0.00
2013-1-4,31,19,9,19,12,3,81,74,61,29.81,29.67,9,1,12,0.00
2013-1-5,26,15,4,17,9,-2,80,76,66,29.78,29.53,10,0,12,0.00
2013-1-6,24,16,7,16,9,1,80,72,60,29.88,29.68,10,1,14,0.00
2013-1-7,37,27,15,26,20,9,82,74,63,29.68,29.54,10,2,10,0.00
2013-1-8,38,25,9,28,18,4,83,76,65,29.67,29.43,9,1,12,0.00
2013-1-9,34,28,18,26,20,13,81,71,60,30.02,29.55,18,3,25,0.00
2013-1-10,44,31,16,30,23,11,84,72,51,29.99,29.44,10,1,11,0.19
2013-1-11,40,37,34,36,33,30,88,86,83,29.44,29.05,7,0,7,0.00
2013-1-12,39,18,6,36,11,-1,88,72,61,29.75,29.05,17,5,20,0.00
2013-1-13,10,5,1,1,-2,-5,77,72,65,29.89,29.72,9,0,10,0.00
2013-1-14,12,5,-2,3,-2,-8,77,73,62,30.07,29.89,8,0,13,0.00
2013-1-15,26,16,5,15,8,-1,80,71,56,29.95,29.47,13,1,13,0.00
2013-1-16,34,24,9,27,13,-5,82,64,45,29.93,29.31,21,6,26,0.00
2013-1-17,15,10,3,4,-1,-5,74,61,52,30.06,29.93,14,2,16,0.00
2013-1-18,40,23,11,28,16,4,82,74,62,29.97,29.40,12,1,13,0.00
2013-1-19,37,20,1,28,12,-8,85,71,54,29.87,29.37,29,6,35,0.00
2013-1-20,7,0,-5,-5,-9,-14,70,64,54,30.07,29.86,18,4,23,0.00
2013-1-21,-5,-9,-14,-14,-19,-23,65,60,53,30.02,29.93,17,4,22,0.00
2013-1-22,4,-7,-18,-9,-16,-25,69,64,54,30.35,29.96,12,1,13,0.00
2013-1-23,15,4,-9,4,-7,-20,72,60,47,30.60,30.18,31,6,36,0.00
2013-1-24,9,0,-10,-1,-11,-20,63,59,53,30.65,30.15,10,1,13,0.00
2013-1-25,18,13,3,10,3,-5,75,64,54,30.28,29.89,23,6,24,0.00
2013-1-26,21,10,-6,10,0,-12,73,64,52,30.33,30.12,12,1,14,0.00
2013-1-27,35,26,17,25,18,8,83,71,57,30.12,29.81,13,1,13,0.00
2013-1-28,37,31,25,30,26,21,86,81,74,29.90,29.64,0,0,0,0.02
2013-1-29,38,32,25,30,26,17,86,78,69,29.75,29.52,22,5,24,0.09
2013-1-30,25,16,9,17,8,1,77,68,60,29.74,29.64,25,11,32,0.00
2013-1-31,9,2,-9,1,-7,-19,73,64,54,30.22,29.72,26,8,29,0.00
2013-2-1,7,-5,-17,-7,-15,-25,71,63,51,30.29,30.06,9,1,13,0.00
2013-2-2,14,5,-8,1,-4,-15,74,66,53,30.16,29.96,8,0,11,0.00
2013-2-3,16,10,2,3,0,-5,73,65,54,30.05,29.95,13,2,19,0.00
2013-2-4,18,9,-3,4,-3,-12,70,58,46,30.06,29.72,13,1,13,0.02
2013-2-5,26,18,0,18,9,-8,78,68,54,30.06,29.63,22,4,25,0.23
2013-2-6,23,14,-1,17,8,-8,78,74,69,30.08,29.95,9,1,12,0.05
2013-2-7,29,25,22,20,18,17,83,77,66,30.25,30.01,17,6,23,0.09
2013-2-8,31,17,3,17,8,-3,80,70,53,30.36,30.22,13,0,13,0.14
2013-2-9,33,27,13,25,21,7,84,77,70,30.22,29.94,14,3,19,0.00
2013-2-10,32,29,26,28,24,21,86,84,81,29.94,29.31,15,1,17,0.00
2013-2-11,31,26,17,27,18,10,86,73,61,30.00,29.33,21,3,26,0.00
2013-2-12,33,21,7,22,14,2,80,72,59,30.00,29.77,16,2,16,0.00
2013-2-13,37,30,22,27,23,16,85,76,62,29.77,29.59,8,0,8,0.00
2013-2-14,32,25,13,27,14,0,85,65,40,30.14,29.61,21,5,32,0.00
2013-2-15,18,11,1,2,-1,-7,70,59,49,30.27,30.13,16,4,22,0.00
2013-2-16,19,7,-6,6,-3,-14,74,65,53,30.22,30.10,9,0,9,0.00
2013-2-17,30,16,-8,17,6,-15,74,66,53,30.10,29.64,18,2,20,0.00
2013-2-18,34,24,9,26,15,0,76,70,63,29.77,29.51,31,6,35,0.00
2013-2-19,10,5,0,-1,-7,-10,69,59,49,30.32,29.77,29,13,37,0.00
2013-2-20,16,5,-6,2,-5,-13,71,63,52,30.44,30.32,9,1,14,0.00
2013-2-21,25,12,-8,14,2,-15,75,65,49,30.46,30.11,18,3,22,0.00
2013-2-22,34,24,14,22,17,8,81,73,60,30.11,29.84,15,4,20,0.00
2013-2-23,39,27,13,25,19,8,82,71,55,29.93,29.81,9,1,10,0.00
2013-2-24,43,23,8,25,14,2,80,70,47,30.09,29.93,6,0,7,0.00
2013-2-25,40,24,8,24,14,2,79,69,50,30.10,30.03,3,0,7,0.00
2013-2-26,39,25,11,26,17,5,82,71,56,30.07,29.90,20,4,21,0.00
2013-2-27,29,28,27,22,21,20,77,76,72,29.91,29.89,16,5,17,0.00
2013-3-4,24,24,24,19,18,18,80,79,76,30.05,30.03,0,0,0,0.00
2013-3-5,33,25,19,24,19,13,82,76,66,30.28,29.99,20,2,20,0.00
2013-3-6,31,18,3,17,10,-3,82,71,55,30.40,30.28,17,2,20,0.00
2013-3-7,37,15,-3,20,5,-10,76,66,49,30.39,30.27,3,0,9,0.00
2013-3-8,41,24,7,27,16,1,80,71,55,30.32,30.08,9,0,10,0.00
2013-3-9,38,34,25,32,29,19,86,82,75,30.09,29.69,9,0,13,0.00
2013-3-10,35,33,29,30,26,21,87,76,69,29.98,29.79,32,12,32,0.00
2013-3-11,34,28,24,23,19,17,77,71,55,29.90,29.73,24,8,24,0.00
2013-3-12,32,24,17,17,13,6,79,64,45,30.16,29.80,30,8,32,0.00
2013-3-13,34,23,16,14,10,6,66,58,42,30.29,30.16,13,1,14,0.00
2013-3-14,44,30,21,28,20,12,79,68,53,30.23,30.00,7,0,9,0.00
2013-3-15,37,31,26,28,25,21,84,77,65,30.00,29.93,17,1,17,0.00
2013-3-16,26,20,10,12,7,-1,71,58,49,30.22,30.08,18,5,19,0.00
2013-3-17,32,15,-4,12,2,-11,72,58,43,30.26,29.89,17,2,17,0.00
2013-3-18,29,22,12,23,13,3,80,68,55,29.89,29.58,24,9,24,0.00
2013-3-19,26,14,6,8,1,-6,70,58,43,30.14,29.74,23,9,26,0.00
2013-3-20,25,13,3,6,-1,-8,61,53,44,30.16,30.06,28,8,30,0.00
2013-3-21,29,14,-3,11,2,-11,73,60,46,30.11,30.03,15,2,15,0.00
2013-3-22,38,20,-1,18,8,-8,74,60,43,30.08,30.02,5,0,8,0.00
2013-3-23,45,29,16,24,16,8,73,58,39,30.16,30.05,6,0,7,0.07
2013-3-24,36,30,25,22,18,16,67,61,53,30.09,29.99,26,5,26,0.00
2013-3-25,39,29,18,20,16,10,72,58,44,30.18,30.04,26,6,26,0.00
2013-3-26,41,34,31,20,18,18,60,52,42,30.27,30.18,13,1,13,0.00
2013-3-27,50,36,23,26,19,14,68,52,35,30.32,30.27,6,0,8,0.00
2013-3-28,47,30,15,24,18,9,79,60,40,30.34,30.26,5,0,8,0.00
2013-3-29,52,36,20,33,24,14,78,63,46,30.28,30.07,12,1,15,0.00
2013-3-30,52,42,35,40,34,28,85,74,60,30.07,29.82,16,2,16,0.00
2013-3-31,39,33,23,30,20,10,81,62,40,30.06,29.77,37,11,41,0.00
2013-4-1,34,25,16,16,11,7,68,56,44,30.22,30.07,26,9,26,0.00
2013-4-2,37,26,15,17,12,8,74,56,39,30.34,30.21,23,3,23,0.00
2013-4-3,46,31,11,28,18,5,79,61,41,30.38,30.01,21,4,24,0.00
2013-4-4,47,40,30,31,25,17,72,56,38,30.17,29.95,30,8,30,0.00
2013-4-5,48,34,21,26,19,12,75,55,38,30.24,29.94,14,2,14,0.00
2013-4-6,52,38,33,33,29,26,82,71,47,29.94,29.55,21,4,21,0.00
2013-4-7,49,39,34,34,30,28,81,71,55,29.94,29.73,14,1,14,0.25
2013-4-8,45,39,36,38,33,30,86,81,74,30.07,29.72,0,0,0,0.00
2013-4-9,45,37,33,32,26,20,81,65,48,30.19,30.01,0,0,0,0.00
2013-4-10,42,36,31,23,20,17,62,52,40,30.20,29.96,0,0,0,0.00
2013-4-11,36,32,29,27,22,16,82,69,47,29.98,29.73,0,0,0,0.00
2013-4-12,43,32,28,29,24,22,83,72,53,29.84,29.69,0,0,0,0.00
2013-4-13,44,32,20,24,20,14,82,64,40,29.96,29.82,0,0,0,0.00
2013-4-14,40,29,19,37,23,13,89,79,56,29.97,29.52,14,1,14,0.00
2013-4-15,42,36,32,38,32,29,89,87,83,29.92,29.51,31,2,21,0.00
2013-4-16,49,40,27,36,29,21,83,66,45,30.32,29.93,16,3,16,0.00
2013-4-17,41,35,26,29,26,21,85,70,59,30.34,29.95,25,4,25,0.00
2013-4-18,34,32,30,29,28,26,87,84,77,29.96,29.49,0,0,0,0.00
2013-4-19,39,33,28,27,22,10,87,66,45,29.91,29.47,12,2,19,0.00
2013-4-20,44,31,16,19,10,2,55,42,22,30.24,29.91,5,1,9,0.00
2013-4-21,46,37,26,42,30,11,98,77,51,30.24,29.97,7,2,13,0.08
2013-4-22,47,38,32,40,30,23,98,76,44,30.18,30.06,8,3,18,1.36
2013-4-23,44,36,29,32,24,14,98,64,35,30.12,30.00,10,5,21,0.37
2013-4-24,50,36,26,34,27,17,89,71,42,30.03,29.85,11,4,24,0.00
2013-4-25,53,41,30,32,28,20,95,64,39,30.15,29.91,8,4,18,0.04
2013-4-26,70,54,38,44,37,27,78,54,32,30.09,29.94,11,5,22,0.00
2013-4-27,78,57,33,45,36,28,86,52,21,30.12,29.85,9,3,21,0.00
2013-4-28,82,64,46,57,47,42,86,58,32,29.85,29.65,16,7,38,0.04
2013-4-29,79,61,46,48,41,31,74,50,26,29.83,29.56,10,5,22,0.00
2013-4-30,72,63,55,60,44,16,88,55,15,29.91,29.41,19,10,42,0.00
2013-5-1,56,43,36,34,29,24,91,58,44,30.44,29.91,14,7,23,0.05
2013-5-2,47,40,36,26,24,21,66,53,43,30.50,29.53,15,9,28,0.00
2013-5-3,37,34,31,33,29,20,98,81,53,30.42,30.18,10,6,24,0.04
2013-5-4,48,38,33,40,35,31,98,89,73,30.21,30.15,10,6,20,0.17
2013-5-5,67,50,37,46,40,35,95,72,45,30.21,30.09,8,4,15,0.00
2013-5-6,79,59,40,51,43,37,90,61,34,30.15,30.03,6,2,10,0.00
2013-5-7,84,64,44,55,45,37,91,56,26,30.09,29.97,7,2,13,0.00
2013-5-8,79,63,49,57,48,40,86,61,34,30.06,29.97,12,2,24,0.00
2013-5-9,58,51,41,56,45,26,98,82,52,30.15,30.00,11,6,23,0.04
2013-5-10,68,51,33,35,28,-7,75,46,5,30.15,29.88,8,4,16,0.00
2013-5-11,57,45,38,39,26,18,63,47,36,30.18,29.88,21,13,36,0.00
2013-5-12,59,45,32,27,14,-11,59,36,6,30.21,30.09,14,6,23,0.00
2013-5-13,70,51,28,42,30,15,65,47,27,30.12,29.68,9,4,18,0.00
2013-5-14,93,68,41,56,39,-16,84,47,2,29.80,29.50,18,6,37,0.00
2013-5-15,83,67,51,47,43,36,72,44,21,29.94,29.68,15,5,27,0.00
2013-5-16,83,71,50,48,39,27,72,34,19,29.97,29.83,7,4,14,0.00
2013-5-17,70,62,56,56,45,26,90,57,24,30.06,29.97,8,5,17,0.00
2013-5-18,81,64,54,69,60,51,98,86,58,30.03,29.83,7,3,16,0.41
2013-5-19,87,68,59,70,64,59,98,88,50,29.85,29.65,9,3,22,0.50
2013-5-20,76,63,53,68,60,52,98,90,63,29.68,29.56,7,3,16,0.62
2013-5-21,53,49,45,52,48,44,98,96,86,29.77,29.59,6,4,14,0.46
2013-5-22,53,48,43,50,46,43,98,93,81,30.03,29.74,8,4,18,0.12
2013-5-23,66,52,41,44,35,27,92,57,33,30.33,30.03,9,4,16,0.00
2013-5-24,73,54,33,50,38,30,90,60,34,30.42,30.21,6,2,14,0.00
2013-5-25,71,60,52,55,50,46,96,72,47,30.27,30.24,7,3,17,0.05
2013-5-26,72,60,49,47,43,39,77,56,34,30.24,30.06,8,3,16,0.00
2013-5-27,62,58,53,56,50,44,89,74,63,30.09,29.88,6,4,14,0.00
2013-5-28,64,58,54,61,56,52,98,90,79,29.88,29.77,4,2,11,0.00
2013-5-29,82,67,58,70,62,57,98,85,53,29.85,29.68,6,2,12,0.00
2013-5-30,81,70,63,71,65,62,98,87,57,29.74,29.56,7,3,17,0.49
2013-5-31,80,67,58,65,60,54,98,80,46,29.59,29.53,8,3,25,0.38
2013-6-1,72,60,50,62,55,40,98,84,65,29.94,29.59,13,4,25,0.04
2013-6-2,68,56,48,44,41,38,84,60,38,30.09,29.94,9,4,19,0.00
2013-6-3,73,58,42,49,44,40,93,62,36,30.09,29.97,4,1,8,0.00
2013-6-4,70,58,52,56,48,40,98,70,51,30.12,30.03,9,3,19,0.25
2013-6-5,60,55,50,59,54,50,98,97,94,30.09,29.97,6,2,12,0.99
2013-6-6,58,52,48,54,51,48,98,94,83,30.06,29.97,5,3,11,0.00
2013-6-7,70,58,51,57,52,49,95,82,57,30.06,29.94,3,1,7,0.00
2013-6-8,76,64,53,60,56,52,98,76,50,29.94,29.91,4,2,11,0.00
2013-6-9,64,59,56,63,57,54,98,95,86,29.94,29.83,6,2,14,0.29
2013-6-10,75,64,58,65,60,57,98,89,64,29.88,29.83,4,1,8,0.00
2013-6-11,82,68,51,70,62,51,98,83,53,29.91,29.83,4,1,10,0.00
2013-6-12,79,69,61,68,59,47,94,73,47,29.94,29.80,7,3,14,0.00
2013-6-13,80,67,56,58,52,47,83,61,43,30.12,29.94,6,3,12,0.00
2013-6-14,82,67,50,64,57,48,95,73,49,30.09,29.88,6,2,16,0.00
2013-6-15,79,70,60,72,65,58,96,84,68,29.91,29.85,7,2,14,0.04
2013-6-16,86,72,57,59,52,48,96,56,29,29.91,29.83,13,4,28,0.00
2013-6-17,79,66,55,67,56,46,94,70,48,30.06,29.83,6,3,14,0.00
2013-6-18,79,62,46,59,51,42,95,70,45,30.12,30.03,4,2,9,0.00
2013-6-19,86,70,52,65,59,51,97,73,45,30.09,29.97,4,1,11,0.00
2013-6-20,87,74,62,73,67,60,96,79,57,30.00,29.91,5,2,11,0.00
2013-6-21,82,72,64,69,66,64,98,84,60,30.06,29.71,21,4,37,1.04
2013-6-22,81,71,65,73,68,64,98,91,71,30.00,29.85,7,2,13,0.21
2013-6-23,84,72,62,73,66,61,98,83,54,29.88,29.71,8,3,20,0.37
2013-6-24,87,74,59,74,68,59,98,83,56,29.91,29.80,5,1,11,0.00
2013-6-25,88,75,62,72,68,61,98,81,55,29.85,29.74,4,1,11,0.00
2013-6-26,91,78,68,80,71,66,98,81,50,29.80,29.68,10,2,17,0.29
2013-6-27,86,76,64,69,62,55,97,67,39,29.83,29.77,12,5,22,0.00
2013-6-28,78,69,62,68,63,58,98,81,57,29.80,29.77,15,6,28,0.13
2013-6-29,77,68,59,64,57,47,98,73,43,30.00,29.77,7,4,22,1.04
2013-6-30,85,69,54,59,54,50,95,65,35,30.12,30.00,7,2,17,0.00
2013-7-1,84,70,56,64,58,53,97,68,38,30.18,30.12,6,2,12,0.00
2013-7-2,83,69,54,57,53,49,87,61,38,30.18,30.06,5,2,11,0.00
2013-7-3,85,72,55,59,55,51,93,58,36,30.09,29.97,3,1,7,0.00
2013-7-4,90,72,55,68,60,54,97,69,38,29.97,29.85,5,1,11,0.00
2013-7-5,90,78,64,67,63,60,87,62,43,29.91,29.80,7,2,18,0.00
2013-7-6,87,77,68,76,68,62,87,74,49,29.88,29.83,5,1,12,0.00
2013-7-7,94,80,67,77,71,67,98,77,53,29.91,29.83,9,1,14,0.08
2013-7-8,84,68,57,73,64,57,98,89,67,30.03,29.91,6,2,10,0.00
2013-7-9,86,74,65,75,69,62,98,85,64,30.00,29.77,10,3,23,0.33
2013-7-10,79,70,60,63,58,54,93,68,43,30.06,29.91,9,5,18,0.00
2013-7-11,85,71,55,68,61,54,98,74,46,30.12,29.97,3,1,10,0.00
2013-7-12,89,77,65,69,64,59,88,65,46,30.03,29.88,6,3,18,0.00
2013-7-13,78,72,66,72,68,61,97,87,64,30.09,29.91,5,2,14,0.17
2013-7-14,88,75,68,73,68,64,95,81,52,30.18,30.06,5,1,9,0.00
2013-7-15,92,77,63,74,68,62,98,78,47,30.24,30.15,3,1,10,0.00
2013-7-16,95,82,69,77,72,68,98,75,47,30.21,30.15,7,2,14,0.00
2013-7-17,96,83,70,74,71,67,97,71,40,30.24,30.09,7,2,17,0.00
2013-7-18,98,85,72,76,72,69,94,68,43,30.12,29.74,8,4,20,0.00
2013-7-19,84,78,68,74,65,58,94,66,43,29.88,29.71,10,5,21,0.04
2013-7-20,79,70,62,65,58,52,98,70,43,30.00,29.85,5,2,10,0.00
2013-7-21,82,69,56,68,60,51,93,75,62,30.00,29.83,4,2,11,0.00
2013-7-22,87,74,66,74,64,52,97,75,43,29.85,29.68,12,4,22,0.00
2013-7-23,75,66,56,56,53,49,90,65,43,30.03,29.85,8,3,15,0.00
2013-7-24,78,65,53,61,56,51,96,76,47,30.09,29.97,4,1,8,0.00
2013-7-25,83,71,59,66,62,57,96,75,47,29.97,29.88,8,2,17,0.21
2013-7-26,68,62,51,63,54,46,93,76,62,30.09,29.91,15,6,25,0.46
2013-7-27,62,55,51,56,50,47,92,84,73,30.09,29.91,11,6,25,0.13
2013-7-28,71,60,50,56,51,47,94,73,53,30.06,29.94,8,4,19,0.00
2013-7-29,79,64,48,62,56,47,98,79,46,30.12,30.06,3,0,8,0.00
2013-7-30,74,66,60,66,63,60,98,92,77,30.12,30.06,2,0,8,0.08
2013-7-31,80,68,58,67,58,48,98,75,38,30.06,29.97,11,3,26,0.00
2013-8-1,82,68,56,60,55,52,90,67,41,30.03,29.85,7,3,14,0.00
2013-8-2,78,67,57,60,54,50,95,68,39,30.03,29.85,8,3,14,0.00
2013-8-3,77,64,50,58,50,43,96,65,33,30.21,30.03,9,3,16,0.00
2013-8-4,79,64,50,59,53,48,95,70,42,30.24,30.00,4,1,10,0.00
2013-8-5,70,64,57,67,62,53,98,94,84,30.00,29.77,6,1,11,0.00
2013-8-6,80,66,56,70,62,55,98,87,66,29.83,29.65,8,2,16,1.37
2013-8-7,76,65,54,62,55,48,98,74,42,30.00,29.74,8,4,14,0.00
2013-8-8,79,64,50,62,56,49,98,77,44,30.00,29.94,7,1,14,0.00
2013-8-9,75,65,54,61,54,49,98,72,43,30.09,29.94,10,4,19,0.00
2013-8-10,78,66,55,60,55,50,92,69,43,30.15,30.06,6,1,10,0.00
2013-8-11,80,66,52,65,57,51,97,76,45,30.06,29.97,4,1,10,0.00
2013-8-12,78,66,58,62,58,52,97,77,42,30.06,29.97,9,3,17,0.00
2013-8-13,75,62,50,58,51,46,98,70,37,30.18,30.06,6,2,12,0.00
2013-8-14,75,62,50,57,53,48,92,75,41,30.18,30.06,2,0,5,0.00
2013-8-15,82,66,51,63,56,50,97,74,42,30.09,30.03,5,1,11,0.00
2013-8-16,83,67,52,65,57,51,98,73,40,30.15,30.09,5,1,14,0.00
2013-8-17,84,67,51,63,55,50,98,70,40,30.18,30.06,6,2,17,0.00
2013-8-18,85,69,54,64,57,52,98,69,40,30.12,29.97,6,2,14,0.00
2013-8-19,90,75,65,71,66,59,91,74,50,29.97,29.85,5,2,12,0.00
2013-8-20,94,78,66,76,70,65,98,79,51,29.91,29.83,5,2,13,0.00
2013-8-21,90,77,66,78,70,60,98,81,48,30.00,29.83,6,2,11,0.00
2013-8-22,83,70,56,60,53,47,92,58,32,30.12,29.97,6,2,14,0.00
2013-8-23,87,68,49,64,57,47,95,71,40,30.15,30.00,4,1,10,0.00
2013-8-24,93,78,65,74,69,63,97,76,49,30.06,29.88,8,3,22,0.00
2013-8-25,99,86,76,76,73,71,86,69,42,29.97,29.88,7,3,16,0.00
2013-8-26,98,85,76,80,76,72,93,75,50,29.97,29.80,4,2,13,0.00
2013-8-27,90,80,70,79,74,68,97,85,61,29.91,29.77,6,2,12,0.00
2013-8-28,92,76,66,76,68,63,98,80,41,30.00,29.91,3,0,7,0.00
2013-8-29,97,80,65,80,71,64,98,78,44,30.00,29.83,5,1,12,0.00
2013-8-30,84,75,63,72,66,59,96,75,53,29.94,29.80,8,3,17,0.00
2013-8-31,91,72,57,70,64,56,98,77,44,29.88,29.71,11,2,23,0.00
2013-9-1,74,68,60,64,60,52,97,77,58,29.97,29.71,11,5,20,0.00
2013-9-2,68,60,48,54,50,46,91,73,52,30.09,29.97,8,3,14,0.00
2013-9-3,78,60,41,59,51,40,98,76,43,30.06,29.94,5,1,13,0.00
2013-9-4,81,67,55,66,59,54,97,78,48,30.15,29.97,6,1,14,0.00
2013-9-5,83,65,50,58,54,48,97,72,40,30.21,30.09,4,1,9,0.00
2013-9-6,95,78,62,72,65,58,98,69,35,30.09,29.85,7,2,16,0.00
2013-9-7,91,77,65,72,66,59,95,71,45,30.03,29.83,6,2,14,0.00
2013-9-8,68,62,59,61,58,51,98,86,55,30.06,29.88,5,1,12,0.62
2013-9-9,87,72,61,78,70,60,98,93,71,29.88,29.62,6,1,14,0.08
2013-9-10,84,73,65,73,66,59,98,82,46,29.94,29.74,7,3,16,0.00
2013-9-11,81,70,60,65,58,51,98,70,36,30.03,29.94,10,3,22,0.00
2013-9-12,70,61,52,56,49,42,97,68,43,30.21,30.03,11,5,22,0.00
2013-9-13,70,57,41,53,46,40,97,69,43,30.24,30.06,3,1,8,0.00
2013-9-14,73,56,44,58,50,42,98,82,45,30.06,29.91,5,1,12,0.88
2013-9-15,63,57,44,60,53,42,98,89,64,30.30,29.88,7,2,14,0.12
2013-9-16,66,49,37,49,41,36,98,77,43,30.39,30.21,4,1,9,0.00
2013-9-17,72,54,39,57,48,37,98,82,54,30.21,29.94,6,2,16,0.00
2013-9-18,71,65,58,69,64,57,98,97,94,29.94,29.71,3,1,11,0.04
2013-9-19,76,68,62,74,67,61,98,95,77,29.74,29.59,16,2,36,1.51
2013-9-20,65,59,50,62,54,45,98,86,49,29.88,29.74,10,5,19,0.08
2013-9-21,62,53,42,48,45,40,97,77,50,29.97,29.88,6,2,11,0.00
2013-9-22,70,54,37,53,47,36,98,80,52,29.97,29.85,6,2,13,0.00
2013-9-23,73,59,50,56,52,49,97,78,49,29.94,29.85,6,2,16,0.00
2013-9-24,75,58,46,57,51,45,98,81,47,29.97,29.88,4,1,11,0.00
2013-9-25,74,57,44,60,50,43,98,81,50,29.94,29.85,4,1,12,0.00
2013-9-26,78,63,48,62,56,46,98,79,53,29.94,29.83,7,3,18,0.00
2013-9-27,81,70,61,66,62,58,93,77,54,29.91,29.80,8,3,25,0.00
2013-9-28,70,61,45,64,56,44,97,83,70,29.88,29.59,13,4,26,0.25
2013-9-29,72,56,41,55,48,41,98,77,44,29.91,29.74,4,1,11,0.00
2013-9-30,77,64,54,55,51,47,78,64,45,29.77,29.59,7,2,17,0.00
2013-10-1,73,62,48,55,46,36,84,58,28,29.94,29.53,10,4,22,0.00
2013-10-2,76,55,38,54,44,35,98,73,32,30.00,29.85,12,2,20,0.41
2013-10-3,58,55,54,57,55,53,98,98,98,29.94,29.85,6,3,14,0.21
2013-10-4,59,56,54,56,54,54,98,95,82,30.00,29.85,6,4,14,0.13
2013-10-5,60,56,53,60,56,53,98,98,98,29.88,29.71,7,3,14,0.74
2013-10-6,54,50,41,53,49,41,98,95,83,29.80,29.65,10,3,17,0.00
2013-10-7,65,50,38,50,42,38,98,79,41,29.94,29.77,8,2,18,0.00
2013-10-8,76,58,40,52,46,39,98,69,40,29.94,29.77,8,3,20,0.00
2013-10-9,75,60,49,55,50,46,91,70,46,30.00,29.85,6,2,13,0.00
2013-10-10,75,59,45,55,49,44,98,75,44,30.00,29.85,6,2,14,0.00
2013-10-11,76,67,54,57,53,50,85,62,46,29.88,29.59,12,6,27,0.00
2013-10-12,62,52,44,59,46,40,93,79,57,30.09,29.65,9,5,23,0.00
2013-10-13,60,47,38,43,38,34,98,75,42,30.36,30.09,7,2,12,0.00
2013-10-14,56,45,34,47,39,32,95,79,53,30.36,29.97,6,2,12,0.13
2013-10-15,51,49,47,50,48,47,98,98,94,30.00,29.65,11,5,25,1.24
2013-10-16,55,46,34,47,39,32,98,80,48,29.91,29.80,9,4,17,0.00
2013-10-17,58,45,34,47,41,32,98,88,52,29.83,29.74,9,2,22,0.04
2013-10-18,54,44,38,42,36,30,98,79,42,29.91,29.77,9,4,17,0.17
2013-10-19,48,41,34,40,35,28,97,83,47,29.77,29.65,8,3,15,0.00
2013-10-20,36,34,30,35,33,28,98,96,92,29.80,29.62,8,2,15,0.24
2013-10-21,39,35,31,35,23,18,98,62,50,29.88,29.80,12,7,24,0.00
2013-10-22,42,35,29,32,27,23,88,74,55,29.97,29.88,6,2,12,0.00
2013-10-23,34,33,31,32,30,28,91,88,79,29.97,29.91,4,3,7,0.00
2013-10-24,39,33,32,30,29,26,89,85,59,30.21,29.94,5,3,8,0.00
2013-10-25,54,44,30,42,32,26,88,66,50,30.24,29.71,9,5,19,0.00
2013-10-26,50,43,38,39,29,25,68,58,49,30.03,29.71,13,6,26,0.00
2013-10-27,55,41,29,34,28,23,84,61,43,30.12,29.77,11,4,22,0.00
2013-10-28,42,35,28,29,22,18,79,60,40,30.42,30.12,8,4,15,0.00
2013-10-29,39,34,27,35,28,22,94,79,56,30.36,30.06,5,2,10,0.00
2013-10-30,48,43,37,48,42,35,98,98,94,30.06,29.65,4,1,6,0.04
2013-10-31,48,44,40,48,44,40,98,98,97,29.65,29.35,8,4,15,0.09
2013-11-1,49,42,37,41,36,30,98,82,60,29.80,29.35,10,5,19,0.00
2013-11-2,49,39,27,35,28,22,84,68,47,30.06,29.80,10,4,15,0.00
2013-11-3,55,41,28,37,30,24,93,69,47,30.06,29.85,11,5,22,0.00
2013-11-4,48,44,31,46,36,29,95,75,55,30.09,29.77,10,4,22,0.08
2013-11-5,45,34,25,37,29,22,98,84,52,30.18,30.00,6,2,12,0.25
2013-11-6,41,33,29,33,27,22,98,82,50,30.09,29.97,9,4,16,0.21
2013-11-7,40,30,22,29,24,19,91,79,52,30.15,30.09,8,2,15,0.00
2013-11-8,40,32,20,37,26,17,93,81,58,30.12,29.56,9,3,21,0.08
2013-11-9,42,40,38,40,32,24,98,74,53,30.12,29.56,16,9,32,0.00
2013-11-10,43,38,29,30,26,21,77,64,53,30.24,30.03,12,5,21,0.00
2013-11-11,36,23,14,30,8,2,78,53,43,30.62,30.06,13,9,29,0.00
2013-11-12,30,20,12,9,6,0,70,54,42,30.68,30.36,8,4,14,0.00
2013-11-13,49,33,18,31,20,7,78,62,46,30.36,29.80,9,4,19,0.00
2013-11-14,50,39,29,37,32,25,88,75,55,29.80,29.71,5,2,9,0.00
2013-11-15,54,38,26,41,32,23,97,82,53,29.80,29.62,7,2,12,0.00
2013-11-16,47,43,35,45,41,33,98,93,83,29.62,29.26,6,3,18,0.16
2013-11-17,44,40,30,43,35,21,98,85,66,29.74,29.26,15,8,29,0.00
2013-11-18,32,26,16,21,16,11,82,66,55,30.21,29.74,15,7,28,0.00
2013-11-19,43,30,14,27,20,10,90,67,50,30.21,29.85,10,5,20,0.00
2013-11-20,47,42,37,33,27,24,85,56,45,30.00,29.85,8,5,19,0.00
2013-11-21,37,31,23,37,24,10,98,74,53,30.44,30.00,13,6,26,0.00
2013-11-22,33,22,11,14,7,-2,76,55,25,30.53,30.36,14,7,26,0.00
2013-11-23,18,11,4,1,-4,-13,53,49,44,30.74,30.53,13,6,24,0.00
2013-11-24,32,19,3,14,3,-13,63,48,43,30.62,29.88,11,6,26,0.00
2013-11-25,40,34,29,27,20,12,77,57,49,30.03,29.80,14,8,28,0.00
2013-11-26,29,19,11,15,4,-2,62,51,45,30.33,30.00,19,10,32,0.00
2013-11-27,24,17,5,10,3,-8,69,54,50,30.33,30.03,5,3,11,0.00
2013-11-28,27,21,8,11,6,-4,57,53,48,30.44,30.03,11,4,19,0.00
2013-11-29,32,21,6,17,8,-6,75,57,51,30.44,30.09,9,3,26,0.00
2013-11-30,39,30,22,26,20,13,78,67,54,30.12,29.97,5,2,9,0.00
2013-12-1,36,24,14,26,18,8,84,76,63,30.15,29.88,3,1,5,0.00
2013-12-2,36,31,24,33,28,19,98,90,82,29.88,29.59,6,3,11,0.05
2013-12-3,35,34,30,34,33,27,98,97,89,29.80,29.59,7,4,12,0.12
2013-12-4,30,28,18,29,26,14,97,91,78,29.80,29.44,16,6,30,0.00
2013-12-5,18,6,-3,13,-1,-10,81,72,72,30.24,29.59,15,10,30,0.00
2013-12-6,3,-4,-10,-4,-11,-17,72,72,72,30.53,30.24,11,6,18,0.00
2013-12-7,1,-10,-18,-6,-17,-24,72,72,72,30.62,30.48,7,3,13,0.00
2013-12-8,14,2,-16,6,-5,-23,72,72,72,30.50,29.97,5,2,8,0.00
2013-12-9,6,-3,-12,-1,-10,-18,72,72,72,30.03,29.85,14,5,28,0.00
2013-12-10,7,1,-6,0,-6,-13,72,72,72,30.21,29.74,11,5,21,0.00
2013-12-11,1,-5,-12,-6,-12,-19,72,72,72,30.48,30.21,10,5,16,0.00
2013-12-12,17,7,-7,6,-2,-14,72,66,54,30.24,30.12,6,2,11,0.00
2013-12-13,14,10,8,4,0,-2,63,63,62,30.27,30.12,7,4,16,0.00
2013-12-14,18,9,-1,6,-2,-12,64,60,57,30.27,30.03,10,4,17,0.00
2013-12-15,-1,-5,-13,-12,-16,-24,58,58,58,30.12,30.03,10,4,17,0.00
2013-12-16,17,7,-5,12,-4,-16,83,62,58,30.09,29.83,6,3,14,0.00
2013-12-17,31,21,-2,27,11,-14,95,65,51,30.06,29.80,15,8,26,0.00
2013-12-18,32,18,-1,19,8,-14,91,64,54,30.03,29.62,8,3,16,0.00
2013-12-19,22,16,12,19,7,2,89,68,55,30.06,29.77,10,6,19,0.00
2013-12-20,21,13,6,9,5,1,78,71,58,30.03,29.83,6,3,12,0.00
2013-12-21,24,17,11,13,10,5,78,72,60,30.00,29.83,6,3,12,0.00
2013-12-22,21,17,10,15,11,4,83,77,63,30.15,29.91,9,6,14,0.00
2013-12-23,10,1,-13,4,-4,-18,79,79,79,30.44,30.15,11,6,19,0.00
2013-12-24,10,-3,-21,5,-8,-26,79,79,79,30.42,30.09,6,3,14,0.00
2013-12-25,22,15,9,15,8,1,79,72,60,30.09,30.00,11,4,19,0.00
2013-12-26,24,17,10,14,8,-1,77,67,61,30.12,30.03,3,1,5,0.00
2013-12-27,38,25,5,30,20,-1,94,80,63,30.12,29.83,7,3,16,0.08
2013-12-28,40,29,16,34,26,8,98,89,70,30.00,29.65,16,5,30,0.13
2013-12-29,16,-4,-23,8,-11,-30,70,69,69,30.27,30.00,14,7,27,0.00
2013-12-30,1,-11,-24,-7,-19,-31,69,69,69,30.24,30.15,4,1,6,0.00
2013-12-31,-4,-10,-17,-11,-18,-24,69,69,69,30.39,30.12,6,2,9,0.00
2014-1-1,0,-5,-12,-7,-13,-20,69,69,69,30.44,30.36,5,4,9,0.00
2014-1-2,0,-11,-23,-8,-19,-30,69,69,69,30.44,30.30,6,2,10,0.00